Meteo pe oră la Dziegiele

Astăzi, 3 Martie, Miercuri

Timp Temperatura Precipitaţii Vânt Presiune Umiditate
00:00 -1°C° 0 mm 2 m/s 755 mmHg 86%
01:00 -2°C° 0 mm 2 m/s 755 mmHg 85%
02:00 -2°C° 0 mm 2 m/s 755 mmHg 84%
03:00 -2°C° 0 mm 2 m/s 754 mmHg 83%
04:00 -2°C° 0 mm 2 m/s 754 mmHg 81%
05:00 -2°C° 0 mm 2 m/s 754 mmHg 81%
06:00 +1°C° 0 mm 1 m/s 754 mmHg 80%
07:00 +1°C° 0 mm 1 m/s 754 mmHg 79%
08:00 +1°C° 0 mm 2 m/s 754 mmHg 72%
09:00 +3°C° 0 mm 2 m/s 753 mmHg 64%
10:00 +5°C° 0 mm 2 m/s 753 mmHg 56%
11:00 +4°C° 0 mm 3 m/s 752 mmHg 56%
12:00 +5°C° 0 mm 3 m/s 752 mmHg 56%
13:00 +6°C° 0 mm 4 m/s 751 mmHg 56%
14:00 +6°C° 0 mm 4 m/s 750 mmHg 61%
15:00 +5°C° 0 mm 4 m/s 749 mmHg 66%
16:00 +5°C° 0 mm 4 m/s 748 mmHg 70%
17:00 +4°C° 0 mm 4 m/s 748 mmHg 75%
18:00 +3°C° 0 mm 3 m/s 747 mmHg 80%
19:00 +1°C° 0 mm 3 m/s 747 mmHg 85%
20:00 +1°C° 0 mm 3 m/s 746 mmHg 85%
21:00 +1°C° 0 mm 3 m/s 745 mmHg 85%
22:00 0°C° 0 mm 4 m/s 744 mmHg 84%
23:00 -1°C° 0 mm 4 m/s 744 mmHg 87%

Mâine, 4 Martie, Joi

Timp Temperatura Precipitaţii Vânt Presiune Umiditate
00:00 -1°C° 0 mm 4 m/s 743 mmHg 89%
01:00 -1°C° 0 mm 4 m/s 742 mmHg 91%
02:00 -1°C° 0 mm 4 m/s 741 mmHg 92%
03:00 -1°C° 0 mm 4 m/s 740 mmHg 93%
04:00 -1°C° 0 mm 5 m/s 739 mmHg 94%
05:00 0°C° 0 mm 5 m/s 739 mmHg 93%
06:00 0°C° 0 mm 5 m/s 739 mmHg 93%
07:00 -1°C° 0 mm 6 m/s 739 mmHg 92%
08:00 -1°C° 0 mm 6 m/s 738 mmHg 90%
09:00 -1°C° 0 mm 6 m/s 738 mmHg 88%
10:00 -1°C° 0 mm 6 m/s 738 mmHg 86%
11:00 -1°C° 0 mm 6 m/s 738 mmHg 87%
12:00 -1°C° 0 mm 6 m/s 738 mmHg 88%
13:00 0°C° 0 mm 5 m/s 739 mmHg 89%
14:00 0°C° 0.1 mm 5 m/s 739 mmHg 87%
15:00 -1°C° 0.1 mm 5 m/s 739 mmHg 86%
16:00 -1°C° 0.1 mm 5 m/s 739 mmHg 84%
17:00 -2°C° 0 mm 5 m/s 739 mmHg 81%
18:00 -2°C° 0 mm 4 m/s 740 mmHg 78%
19:00 -2°C° 0 mm 3 m/s 740 mmHg 75%
20:00 -2°C° 0 mm 3 m/s 741 mmHg 76%
21:00 -4°C° 0 mm 3 m/s 741 mmHg 77%
22:00 -4°C° 0 mm 3 m/s 741 mmHg 78%
23:00 -5°C° 0 mm 3 m/s 741 mmHg 80%

Poimâine, 5 Martie, Vineri

Timp Temperatura Precipitaţii Vânt Presiune Umiditate
00:00 -5°C° 0 mm 3 m/s 742 mmHg 81%
01:00 -5°C° 0 mm 3 m/s 742 mmHg 83%
02:00 -4°C° 0 mm 2 m/s 742 mmHg 83%
03:00 -4°C° 0 mm 2 m/s 742 mmHg 83%
04:00 -4°C° 0 mm 2 m/s 742 mmHg 83%
05:00 -4°C° 0 mm 2 m/s 742 mmHg 79%
06:00 -5°C° 0 mm 3 m/s 743 mmHg 76%
07:00 -5°C° 0 mm 3 m/s 743 mmHg 72%
08:00 -4°C° 0.1 mm 3 m/s 743 mmHg 68%
09:00 -3°C° 0.1 mm 4 m/s 744 mmHg 64%
10:00 -2°C° 0.1 mm 4 m/s 744 mmHg 61%
11:00 -2°C° 0 mm 5 m/s 744 mmHg 54%
12:00 -1°C° 0 mm 5 m/s 745 mmHg 48%
13:00 -1°C° 0 mm 5 m/s 745 mmHg 42%
14:00 -1°C° 0 mm 5 m/s 745 mmHg 42%
15:00 -2°C° 0 mm 4 m/s 745 mmHg 42%
16:00 -2°C° 0 mm 4 m/s 745 mmHg 42%
17:00 -2°C° 0 mm 3 m/s 746 mmHg 50%
18:00 -4°C° 0 mm 3 m/s 746 mmHg 57%
19:00 -5°C° 0 mm 3 m/s 747 mmHg 65%
20:00 -5°C° 0.2 mm 3 m/s 747 mmHg 70%
21:00 -5°C° 0.2 mm 3 m/s 748 mmHg 76%
22:00 -5°C° 0.2 mm 3 m/s 748 mmHg 82%
23:00 -6°C° 0 mm 3 m/s 748 mmHg 79%

6 Martie, Sâmbătă

Timp Temperatura Precipitaţii Vânt Presiune Umiditate
00:00 -6°C° 0 mm 3 m/s 749 mmHg 76%
01:00 -7°C° 0 mm 3 m/s 749 mmHg 73%
02:00 -7°C° 0 mm 3 m/s 749 mmHg 71%
03:00 -7°C° 0 mm 3 m/s 750 mmHg 68%
04:00 -7°C° 0 mm 3 m/s 750 mmHg 66%
05:00 -6°C° 0 mm 3 m/s 750 mmHg 69%
06:00 -6°C° 0 mm 3 m/s 751 mmHg 73%
07:00 -6°C° 0 mm 3 m/s 751 mmHg 77%
08:00 -5°C° 0 mm 3 m/s 751 mmHg 70%
09:00 -4°C° 0 mm 4 m/s 751 mmHg 63%
10:00 -3°C° 0 mm 4 m/s 751 mmHg 56%
11:00 -2°C° 0 mm 4 m/s 751 mmHg 54%
12:00 -2°C° 0 mm 5 m/s 751 mmHg 51%
13:00 -2°C° 0 mm 6 m/s 750 mmHg 49%
14:00 -1°C° 0 mm 5 m/s 749 mmHg 51%
15:00 -2°C° 0 mm 5 m/s 749 mmHg 52%
16:00 -2°C° 0 mm 5 m/s 748 mmHg 54%
17:00 -3°C° 0 mm 6 m/s 747 mmHg 55%
18:00 -3°C° 0 mm 6 m/s 747 mmHg 56%
19:00 -4°C° 0 mm 6 m/s 746 mmHg 57%
20:00 -4°C° 0 mm 7 m/s 745 mmHg 66%
21:00 -5°C° 0 mm 8 m/s 745 mmHg 75%
22:00 -5°C° 0 mm 8 m/s 744 mmHg 83%
23:00 -5°C° 0.3 mm 8 m/s 743 mmHg 87%

7 Martie, Duminică

Timp Temperatura Precipitaţii Vânt Presiune Umiditate
00:00 -4°C° 0.3 mm 9 m/s 743 mmHg 91%
01:00 -4°C° 0.3 mm 9 m/s 742 mmHg 95%
02:00 -4°C° 0.2 mm 9 m/s 741 mmHg 95%
03:00 -4°C° 0.2 mm 9 m/s 740 mmHg 95%
04:00 -4°C° 0.2 mm 10 m/s 740 mmHg 95%
05:00 -4°C° 0.4 mm 9 m/s 739 mmHg 95%
06:00 -4°C° 0.4 mm 9 m/s 739 mmHg 96%
07:00 -2°C° 0.4 mm 8 m/s 739 mmHg 96%
08:00 -2°C° 0.3 mm 8 m/s 739 mmHg 96%
09:00 -2°C° 0.3 mm 8 m/s 739 mmHg 96%
10:00 -2°C° 0.3 mm 8 m/s 738 mmHg 96%
11:00 -3°C° 1 mm 7 m/s 738 mmHg 96%
12:00 -3°C° 1 mm 7 m/s 738 mmHg 95%
13:00 -4°C° 1 mm 6 m/s 738 mmHg 95%
14:00 -4°C° 0.3 mm 7 m/s 738 mmHg 88%
15:00 -4°C° 0.3 mm 7 m/s 739 mmHg 80%
16:00 -6°C° 0.3 mm 8 m/s 739 mmHg 73%
17:00 -7°C° 0 mm 7 m/s 740 mmHg 73%
18:00 -8°C° 0 mm 6 m/s 740 mmHg 72%
19:00 -8°C° 0 mm 5 m/s 741 mmHg 72%
20:00 -8°C° 0 mm 5 m/s 741 mmHg 72%
21:00 -8°C° 0 mm 5 m/s 742 mmHg 72%
22:00 -8°C° 0 mm 5 m/s 742 mmHg 73%
23:00 -8°C° 0 mm 5 m/s 742 mmHg 74%

8 Martie, Luni

Timp Temperatura Precipitaţii Vânt Presiune Umiditate
00:00 -8°C° 0 mm 5 m/s 743 mmHg 75%
01:00 -8°C° 0 mm 5 m/s 743 mmHg 76%
02:00 -8°C° 0 mm 5 m/s 743 mmHg 77%
03:00 -8°C° 0 mm 5 m/s 743 mmHg 78%
04:00 -10°C° 0 mm 5 m/s 744 mmHg 78%
05:00 -10°C° 0 mm 5 m/s 744 mmHg 76%
06:00 -10°C° 0 mm 5 m/s 745 mmHg 74%
07:00 -10°C° 0 mm 5 m/s 745 mmHg 72%
08:00 -10°C° 0 mm 5 m/s 746 mmHg 67%
09:00 -9°C° 0 mm 6 m/s 747 mmHg 62%
10:00 -9°C° 0 mm 6 m/s 748 mmHg 57%
11:00 -8°C° 0 mm 6 m/s 748 mmHg 56%
12:00 -6°C° 0 mm 6 m/s 748 mmHg 55%
13:00 -5°C° 0 mm 6 m/s 749 mmHg 53%
14:00 -5°C° 0.1 mm 6 m/s 749 mmHg 58%
15:00 -5°C° 0.1 mm 6 m/s 749 mmHg 63%
16:00 -5°C° 0.1 mm 6 m/s 749 mmHg 68%
17:00 -5°C° 0 mm 5 m/s 749 mmHg 71%
18:00 -6°C° 0 mm 5 m/s 750 mmHg 74%
19:00 -7°C° 0 mm 4 m/s 750 mmHg 77%
20:00 -7°C° 0 mm 4 m/s 750 mmHg 81%
21:00 -7°C° 0 mm 4 m/s 750 mmHg 84%
22:00 -5°C° 0 mm 4 m/s 751 mmHg 88%
23:00 -7°C° 0 mm 4 m/s 751 mmHg 88%
Arată mai mult

Formular de consimțământ

Meteoprog și furnizorii noștri de servicii pot stoca și accesa date personale, precum cookies, identificatori de dispozitiv sau alte tehnologii similare pe dispozitivul dumneavoastră și procesa astfel de date pentru a personaliza conținutul și reclamele, dar și pentru a oferi caracteristici de social media și pentru a analiza traficul.

  • Stocarea și/sau accesarea informațiilor pe dispozitivul dumneavoastră

    Cookies, identificatori de dispozitiv sau alte informații pot fi stocate sau accesate pe dispozitiv în scopurile indicate mai sus.

  • Reclame și conținut personalizat, evaluarea reclamelor și a conținutului, informații despre audiențe și dezvoltarea produselor

    Reclamele și conținutul pot fi personalizate pe baza unui profil. Pot fi adăugate date suplimentare pentru a personaliza mai bine reclamele și conținutul. Performanța reclamelor și conținutului poate fi măsurată. Pot fi obținute informații despre utilizatorii care au văzut reclamele și conținutul. Aceste date pot fi utilizate pentru a dezvolta sau îmbunătăți experiența utilizatorilor, sistemele și software-ul.

Dând clic pe ‘Sunt de acord’, permiteți utilizarea cookie-urilor menționate, a identificatorilor de dispozitiv, balizelor web sau altor tehnologii similare. Setările pot fi modificate din browser-ul dispozitivului dumneavoastră.

În anumite scopuri, interesele legitime pot prima asupra consimțământului. Puteți citi mai multe informații în acest sens în Politica privind Confidențialitatea Datelor și Cookie.